STARLINK-1485 (45774 NORAD) Tracking and Keplerian Element Data

This shows tracking and keplerian element data for the satellite.

Feedback or suggestion? Click here.




ElementValue
Catalog45774
NameSTARLINK-1485
Epoch Orbit182
Epoch Day191.91670139
Epoch Year2020
RAAN166.0871
Inclination53.0011
Eccentricity0.0001007
Argument of Perigee95.0434
Mean Anonmoly46.6342
Mean Motion15.62746629
Decay Rate0.00029179
L11 45774U 20038AW 20191.91670139 .00029179 00000-0 32343-3 0 9995
L22 45774 53.0011 166.0871 0001007 95.0434 46.6342 15.62746629 1825

Live tracking and technical data element details for STARLINK-1485 (NORAD 45774). STARLINK-1485 can be tracked NOW for your location showing map with azimuth and elevation plus other details from your city location.

Track the satellite on the map from your city or location and see movement details for azimuth, elevation, latitude, longitude, range, height, and movement on the map or in text.







IsCatalogInMostPopularTable: catalog: 45774, numindb: 9
Update: records affected: 1



GetName: 45774 STARLINK-1485

Hit Count: updated at: Fri, 10 Jul 2020 15:50:52 GMT